Regional Weather Roundup
Issued by NWS

Home | Current Version | Previous Version | Graphics & Text | Print | Product List | Glossary On
Versions: 1 2 3 4 5 6 7 8 9 10 11 12 13 14 15 16 17 18 19 20 21 22 23 24 25 26 27 28 29 30 31 32 33 34 35 36 37 38 39 40 41 42 43 44 45 46 47 48 49 50
306
ASUS44 KJAN 170110
RWRMS

MISSISSIPPI HOURLY WEATHER ROUNDUP
NATIONAL WEATHER SERVICE JACKSON MS
800 PM CDT TUE SEP 16 2014

NOTE: "FAIR: INDICATES FEW OR NO CLOUDS BELOW 12,000 FEET WITH NO
SIGNIFICANT WEATHER AND/OR OBSTRUCTIONS TO VISIBILITY.

MSZ001>002-007>008-010>013-018>021-025>028-034>036-170200-
NORTHWEST MISSISSIPPI

CITY           SKY/WX    TMP DP  RH WIND       PRES   REMARKS
CLARKSDALE     FAIR      73  70  88 CALM      30.03S
CLEVELAND      FAIR      78  72  82 N8        30.00R
GREENWOOD      CLEAR     75  70  84 N3        29.99R
GREENVILLE     CLEAR     82  68  62 NE8       29.99R
GRENADA        FAIR      77  70  78 N6        30.01R
OLIVE BRANCH   PTCLDY    70  70 100 NE5       30.04S
OXFORD         FAIR      70  66  88 N5        30.05S
TUNICA         PTCLDY    72  66  83 CALM      30.04R
$$

MSZ003>006-009-014>017-022>024-029>033-037>039-170200-
NORTHEAST MISSISSIPPI

CITY           SKY/WX    TMP DP  RH WIND       PRES   REMARKS
COLUMBUS AFB   PTCLDY    78  68  70 N6        30.00R
CORINTH        FAIR      70  64  83 CALM      30.04S
GOLDN TRIANGLE PTCLDY    81  66  61 N5        30.00R
STARKVILLE     FAIR      75  68  78 CALM      30.00R
TUPELO         CLEAR     75  68  78 NE9       30.02R
$$

MSZ040-058-170200-
CENTRAL MISSISSIPPI

CITY           SKY/WX    TMP DP  RH WIND       PRES   REMARKS
JACKSON INTL   MOCLDY    79  70  74 CALM      30.00R
JACKSON HAWKNS MOCLDY    82  68  62 CALM      30.00S
MERIDIAN KEY   PTCLDY    76  69  79 CALM      29.99S
MERIDIAN NAS   PTCLDY    78  68  71 CALM      29.99S
RAYMOND        FAIR      75  70  83 CALM      30.00S
VICKSBURG      CLOUDY    75  70  84 CALM      29.99S
$$

MSZ059>079-170200-
SOUTH MISSISSIPPI

CITY           SKY/WX    TMP DP  RH WIND       PRES   REMARKS
BROOKHAVEN     FAIR      79  73  83 S7        30.03R
HATTIESBURG    HVY RAIN  73  72  96 E12       30.05R FOG
MCCOMB         CLOUDY    74  73  97 SE5       30.03R
NATCHEZ        MOCLDY    79  73  83 CALM      30.01R
PINE BELT      MOCLDY   N/A N/A N/A S10       30.03R
$$

MSZ080>082-170200-
COASTAL MISSISSIPPI

CITY           SKY/WX    TMP DP  RH WIND       PRES   REMARKS
BAY ST LOUIS   PTCLDY    73  70  88 CALM      30.00F
BILOXI         LGT RAIN  76  73  90 S7        30.02R
PASCAGOULA     CLOUDY    74  72  93 W3        30.01R
GULFPORT       LGT RAIN  75  72  90 E7        30.02R
$$



USA.gov is the U.S. government's official web portal to all federal, state and local government web resources and services.